This is the latest recevied weather packets stored in our database for station/object AJ5AG. If no packets are shown the sender has not sent any weather packets the latest 10 day(s).
| Time | Temp. | Humidity | Pressure | Rain* | Wind** | Luminosity | Snow |
|---|---|---|---|---|---|---|---|
| 1777757645 | 23.33° C | 47% | 1021.2 hPa | 0 mm | - | 126 W/m² | - |
| 1777757344 | 23.33° C | 50% | 1021.5 hPa | 0 mm | - | 70 W/m² | - |
| 1777757042 | 23.33° C | 47% | 1021.5 hPa | 0 mm | - | 56 W/m² | - |
| 1777756739 | 22.78° C | 47% | 1021.3 hPa | 0 mm | - | 58 W/m² | - |
| 1777756439 | 22.22° C | 49% | 1021.5 hPa | 0 mm | - | 53 W/m² | - |
| 1777756137 | 22.78° C | 53% | 1021.6 hPa | 0 mm | - | 55 W/m² | - |
| 1777755834 | 23.33° C | 50% | 1021.8 hPa | 0 mm | - | 87 W/m² | - |
| 1777755532 | 23.33° C | 50% | 1021.8 hPa | 0 mm | - | 115 W/m² | - |
| 1777755227 | 23.33° C | 51% | 1021.7 hPa | 0 mm | - | 141 W/m² | - |
| 1777754925 | 23.33° C | 49% | 1021.7 hPa | 0 mm | - | 119 W/m² | - |
| 1777754622 | 23.33° C | 50% | 1021.8 hPa | 0 mm | - | 164 W/m² | - |
| 1777754319 | 23.33° C | 48% | 1021.7 hPa | 0 mm | - | 107 W/m² | - |
| 1777754017 | 23.33° C | 49% | 1021.8 hPa | 0 mm | - | 90 W/m² | - |
| 1777753712 | 23.89° C | 50% | 1021.9 hPa | 0 mm | - | 108 W/m² | - |
| 1777753410 | 23.33° C | 46% | 1021.9 hPa | 0 mm | - | 76 W/m² | - |
| 1777753108 | 23.89° C | 44% | 1021.8 hPa | 0 mm | - | 187 W/m² | - |
| 1777752803 | 23.89° C | 48% | 1022 hPa | 0 mm | - | 216 W/m² | - |
| 1777752500 | 23.89° C | 45% | 1021.9 hPa | 0 mm | - | 188 W/m² | - |
| 1777752196 | 24.44° C | 43% | 1021.9 hPa | 0 mm | - | 465 W/m² | - |
| 1777751894 | 24.44° C | 44% | 1022.1 hPa | 0 mm | - | 749 W/m² | - |
| 1777751590 | 24.44° C | 50% | 1022.1 hPa | 0 mm | - | 757 W/m² | - |
| 1777751287 | 24.44° C | 48% | 1022.1 hPa | 0 mm | - | 782 W/m² | - |
| 1777750984 | 23.89° C | 49% | 1022.3 hPa | 0 mm | - | 799 W/m² | - |
| 1777750680 | 24.44° C | 46% | 1022.4 hPa | 0 mm | - | 825 W/m² | - |
| 1777750377 | 23.89° C | 50% | 1022.5 hPa | 0 mm | - | 794 W/m² | - |
* Rain latest hour (hover to see other rain measurements)
** Current wind speed in m/s (hover to see current wind gust speed)